| time (UTC) | temp F | wind direction | speed MPH | gust MPH | rain 1hr in | rain 24hr in | rain mn in | humidity % | barometer mb |
| 20260831092231 | 66 | 18 | 0.0 | 9.0 | 0.00 | 0.00 | 0.00 | 50 | 1037.7 |
| 20260831091734 | 66 | 7 | 4.0 | 13.0 | 0.00 | 0.00 | 0.00 | 50 | 1037.9 |
| 20260831091231 | 66 | 55 | 0.0 | 11.0 | 0.00 | 0.00 | 0.00 | 51 | 1038.0 |
| 20260831090735 | 66 | 6 | 5.0 | 13.0 | 0.00 | 0.00 | 0.00 | 51 | 1038.0 |
| 20260831090234 | 66 | 55 | 6.0 | 12.0 | 0.00 | 0.00 | 0.00 | 51 | 1038.1 |
| 20260831085731 | 66 | 33 | 9.0 | 13.0 | 0.00 | 0.00 | 0.00 | 50 | 1038.3 |
| 20260831085234 | 66 | 87 | 5.0 | 16.0 | 0.00 | 0.00 | 0.00 | 50 | 1038.1 |
| 20260831084731 | 66 | 352 | 2.0 | 16.0 | 0.00 | 0.00 | 0.00 | 51 | 1038.1 |
| 20260831084234 | 66 | 18 | 8.0 | 13.0 | 0.00 | 0.00 | 0.00 | 51 | 1038.1 |
| 20260831083731 | 66 | 79 | 0.0 | 12.0 | 0.00 | 0.00 | 0.00 | 51 | 1038.2 |
| 20260831083231 | 66 | 257 | 2.0 | 13.0 | 0.00 | 0.00 | 0.00 | 52 | 1038.1 |
| 20260831082731 | 66 | 46 | 9.0 | 11.0 | 0.00 | 0.00 | 0.00 | 52 | 1038.2 |
| 20260831082235 | 66 | 84 | 1.0 | 7.0 | 0.00 | 0.00 | 0.00 | 53 | 1038.2 |
| 20260831081734 | 66 | 315 | 0.0 | 9.0 | 0.00 | 0.00 | 0.00 | 52 | 1038.3 |
| 20260831081234 | 66 | 92 | 1.0 | 11.0 | 0.00 | 0.00 | 0.00 | 52 | 1038.3 |
| 20260831080731 | 66 | 58 | 3.0 | 11.0 | 0.00 | 0.00 | 0.00 | 52 | 1038.4 |
| 20260831080234 | 66 | 340 | 4.0 | 9.0 | 0.00 | 0.01 | 0.00 | 52 | 1038.4 |
| 20260831075734 | 66 | 41 | 0.0 | 10.0 | 0.00 | 0.01 | 0.00 | 53 | 1038.4 |
| 20260831075231 | 66 | 53 | 3.0 | 11.0 | 0.00 | 0.01 | 0.00 | 52 | 1038.5 |
| 20260831074731 | 66 | 61 | 0.0 | 7.0 | 0.00 | 0.01 | 0.00 | 50 | 1038.6 |
| 20260831074234 | 67 | 55 | 0.0 | 0.0 | 0.00 | 0.01 | 0.00 | 49 | 1038.7 |
| 20260831073731 | 67 | 86 | 0.0 | 0.0 | 0.00 | 0.01 | 0.00 | 49 | 1038.6 |
| 20260831073231 | 67 | 104 | 0.0 | 0.0 | 0.00 | 0.01 | 0.00 | 47 | 1038.5 |
| 20260831072734 | 68 | 94 | 0.0 | 0.0 | 0.00 | 0.01 | 0.00 | 47 | 1038.5 |
| 20260831072234 | 68 | 25 | 0.0 | 0.0 | 0.00 | 0.01 | 0.00 | 46 | 1038.5 |
| 20260831071734 | 68 | 20 | 0.0 | 0.0 | 0.00 | 0.01 | 0.00 | 44 | 1038.5 |
| 20260831071234 | 68 | 20 | 0.0 | 0.0 | 0.00 | 0.01 | 0.00 | 45 | 1038.4 |
| 20260831070734 | 67 | 20 | 0.0 | 0.0 | 0.00 | 0.01 | 0.00 | 45 | 1038.4 |
| 20260831070234 | 67 | 20 | 0.0 | 0.0 | 0.00 | 0.01 | 0.00 | 46 | 1038.6 |
| 20260831065734 | 67 | 20 | 0.0 | 0.0 | 0.00 | 0.01 | 0.00 | 46 | 1038.5 |
| 20260831065234 | 68 | 20 | 0.0 | 0.0 | 0.00 | 0.01 | 0.00 | 45 | 1038.5 |
| 20260831064734 | 68 | 252 | 0.0 | 0.0 | 0.00 | 0.01 | 0.00 | 44 | 1038.5 |
| 20260831064234 | 68 | 253 | 0.0 | 0.0 | 0.00 | 0.01 | 0.00 | 44 | 1038.4 |
| 20260831063731 | 68 | 253 | 0.0 | 0.0 | 0.00 | 0.01 | 0.00 | 45 | 1038.3 |
| 20260831063234 | 68 | 253 | 0.0 | 0.0 | 0.00 | 0.01 | 0.00 | 45 | 1038.4 |
| 20260831062734 | 68 | 276 | 0.0 | 0.0 | 0.00 | 0.01 | 0.00 | 45 | 1038.4 |
| 20260831062231 | 67 | 81 | 0.0 | 0.0 | 0.00 | 0.01 | 0.00 | 46 | 1038.5 |
| 20260831061731 | 67 | 80 | 0.0 | 0.0 | 0.00 | 0.01 | 0.00 | 47 | 1038.5 |
| 20260831061231 | 68 | 80 | 0.0 | 0.0 | 0.00 | 0.01 | 0.00 | 45 | 1038.5 |
| 20260831060731 | 68 | 79 | 0.0 | 0.0 | 0.00 | 0.01 | 0.00 | 45 | 1038.6 |
| 20260831060234 | 69 | 70 | 0.0 | 0.0 | 0.00 | 0.01 | 0.00 | 44 | 1038.6 |
| 20260831055731 | 70 | 76 | 0.0 | 3.0 | 0.00 | 0.01 | 0.00 | 43 | 1038.5 |
| 20260831055234 | 71 | 18 | 0.0 | 10.0 | 0.00 | 0.01 | 0.00 | 40 | 1038.5 |
| 20260831054734 | 71 | 15 | 5.0 | 5.0 | 0.00 | 0.01 | 0.00 | 39 | 1038.5 |
| 20260831054231 | 72 | 96 | 0.0 | 0.0 | 0.00 | 0.01 | 0.00 | 39 | 1038.5 |
| 20260831053734 | 72 | 252 | 0.0 | 0.0 | 0.00 | 0.01 | 0.00 | 37 | 1038.5 |
| 20260831053234 | 72 | 253 | 0.0 | 0.0 | 0.00 | 0.01 | 0.00 | 36 | 1038.5 |
| 20260831052731 | 72 | 252 | 0.0 | 0.0 | 0.00 | 0.01 | 0.00 | 37 | 1038.6 |
| 20260831052231 | 72 | 250 | 0.0 | 0.0 | 0.00 | 0.01 | 0.00 | 38 | 1038.7 |
| 20260831051734 | 72 | 248 | 0.0 | 0.0 | 0.00 | 0.01 | 0.00 | 38 | 1038.7 |
| 20260831051231 | 72 | 248 | 0.0 | 0.0 | 0.00 | 0.01 | 0.00 | 39 | 1038.8 |
| 20260831050731 | 72 | 249 | 0.0 | 0.0 | 0.00 | 0.01 | 0.00 | 39 | 1038.7 |
| 20260831050231 | 72 | 347 | 0.0 | 0.0 | 0.00 | 0.01 | 0.00 | 39 | 1038.6 |
| 20260831045734 | 72 | 347 | 0.0 | 0.0 | 0.00 | 0.01 | 0.00 | 38 | 1038.6 |
| 20260831045235 | 72 | 321 | 0.0 | 0.0 | 0.00 | 0.01 | 0.00 | 39 | 1038.6 |
| 20260831044734 | 72 | 322 | 0.0 | 0.0 | 0.00 | 0.01 | 0.00 | 37 | 1038.6 |
| 20260831044234 | 73 | 321 | 0.0 | 0.0 | 0.00 | 0.01 | 0.00 | 38 | 1038.6 |
| 20260831043734 | 73 | 321 | 0.0 | 0.0 | 0.00 | 0.01 | 0.00 | 37 | 1038.6 |
| 20260831043234 | 73 | 321 | 0.0 | 0.0 | 0.00 | 0.01 | 0.00 | 37 | 1038.8 |
| 20260831042734 | 72 | 264 | 0.0 | 0.0 | 0.00 | 0.01 | 0.00 | 38 | 1038.7 |
| 20260831042234 | 72 | 281 | 0.0 | 0.0 | 0.00 | 0.01 | 0.00 | 40 | 1038.7 |
| 20260831041731 | 72 | 240 | 0.0 | 0.0 | 0.00 | 0.01 | 0.00 | 41 | 1038.6 |
| 20260831041231 | 72 | 255 | 0.0 | 0.0 | 0.00 | 0.01 | 0.00 | 40 | 1038.5 |
| 20260831040734 | 72 | 253 | 0.0 | 0.0 | 0.00 | 0.01 | 0.00 | 41 | 1038.6 |
| 20260831040231 | 72 | 253 | 0.0 | 0.0 | 0.00 | 0.01 | 0.00 | 41 | 1038.5 |
| 20260831035734 | 72 | 253 | 0.0 | 0.0 | 0.00 | 0.01 | 0.00 | 42 | 1038.7 |
| 20260831035234 | 71 | 252 | 0.0 | 0.0 | 0.00 | 0.01 | 0.00 | 42 | 1038.6 |
| 20260831034734 | 72 | 253 | 0.0 | 0.0 | 0.00 | 0.01 | 0.00 | 42 | 1038.6 |
| 20260831034231 | 72 | 252 | 0.0 | 0.0 | 0.00 | 0.01 | 0.00 | 42 | 1038.6 |
| 20260831033731 | 72 | 253 | 0.0 | 0.0 | 0.00 | 0.01 | 0.00 | 41 | 1038.5 |
| 20260831033231 | 72 | 253 | 0.0 | 0.0 | 0.00 | 0.01 | 0.00 | 42 | 1038.5 |
| 20260831032734 | 72 | 252 | 0.0 | 0.0 | 0.00 | 0.01 | 0.00 | 41 | 1038.4 |
| 20260831032234 | 72 | 253 | 0.0 | 0.0 | 0.00 | 0.02 | 0.00 | 41 | 1038.3 |
| 20260831031734 | 72 | 253 | 0.0 | 0.0 | 0.00 | 0.03 | 0.00 | 40 | 1038.1 |
| 20260831031231 | 72 | 253 | 0.0 | 0.0 | 0.00 | 0.04 | 0.00 | 39 | 1038.0 |
| 20260831030731 | 73 | 252 | 0.0 | 0.0 | 0.00 | 0.04 | 0.00 | 39 | 1037.9 |
| 20260831030231 | 73 | 253 | 0.0 | 0.0 | 0.00 | 0.04 | 0.00 | 40 | 1037.9 |
| 20260831025734 | 73 | 253 | 0.0 | 0.0 | 0.00 | 0.04 | 0.00 | 40 | 1037.8 |
| 20260831025231 | 72 | 253 | 0.0 | 0.0 | 0.00 | 0.04 | 0.00 | 39 | 1037.7 |
| 20260831024734 | 72 | 252 | 0.0 | 0.0 | 0.00 | 0.04 | 0.00 | 41 | 1037.6 |
| 20260831024231 | 72 | 253 | 0.0 | 0.0 | 0.00 | 0.04 | 0.00 | 40 | 1037.6 |
| 20260831023731 | 73 | 253 | 0.0 | 0.0 | 0.00 | 0.04 | 0.00 | 41 | 1037.4 |
| 20260831023231 | 73 | 252 | 0.0 | 0.0 | 0.00 | 0.04 | 0.00 | 40 | 1037.4 |
| 20260831022731 | 73 | 253 | 0.0 | 0.0 | 0.00 | 0.04 | 0.00 | 39 | 1037.3 |
| 20260831022231 | 73 | 252 | 0.0 | 0.0 | 0.00 | 0.04 | 0.00 | 39 | 1037.2 |
| 20260831021731 | 74 | 253 | 0.0 | 0.0 | 0.00 | 0.06 | 0.00 | 39 | 1037.1 |
| 20260831021234 | 73 | 252 | 0.0 | 0.0 | 0.00 | 0.22 | 0.00 | 38 | 1037.0 |
| 20260831020734 | 73 | 253 | 0.0 | 0.0 | 0.00 | 0.31 | 0.00 | 38 | 1037.0 |
| 20260831020234 | 73 | 252 | 0.0 | 0.0 | 0.00 | 0.34 | 0.00 | 38 | 1036.8 |
| 20260831015734 | 73 | 252 | 0.0 | 0.0 | 0.00 | 0.35 | 0.00 | 38 | 1036.8 |
| 20260831015231 | 73 | 250 | 0.0 | 0.0 | 0.00 | 0.36 | 0.00 | 39 | 1036.8 |
| 20260831014731 | 74 | 250 | 0.0 | 0.0 | 0.00 | 0.36 | 0.00 | 40 | 1036.7 |
| 20260831014234 | 74 | 250 | 0.0 | 0.0 | 0.00 | 0.36 | 0.00 | 40 | 1036.6 |
| 20260831013731 | 75 | 250 | 0.0 | 0.0 | 0.00 | 0.36 | 0.00 | 39 | 1036.5 |
| 20260831013234 | 75 | 250 | 0.0 | 0.0 | 0.00 | 0.36 | 0.00 | 38 | 1036.5 |
| 20260831012734 | 75 | 250 | 0.0 | 0.0 | 0.00 | 0.36 | 0.00 | 42 | 1036.4 |
| 20260831012231 | 75 | 338 | 0.0 | 0.0 | 0.00 | 0.36 | 0.00 | 43 | 1036.4 |
| 20260831011734 | 76 | 337 | 0.0 | 0.0 | 0.00 | 0.36 | 0.00 | 40 | 1036.3 |
| 20260831011234 | 77 | 337 | 0.0 | 0.0 | 0.00 | 0.36 | 0.00 | 40 | 1036.3 |
| 20260831010734 | 77 | 335 | 0.0 | 0.0 | 0.00 | 0.36 | 0.00 | 41 | 1036.2 |
| 20260831010231 | 78 | 336 | 0.0 | 0.0 | 0.00 | 0.36 | 0.00 | 41 | 1036.1 |
| 20260831005734 | 78 | 335 | 0.0 | 0.0 | 0.00 | 0.36 | 0.00 | 38 | 1036.0 |
| 20260831005234 | 77 | 335 | 0.0 | 0.0 | 0.00 | 0.36 | 0.00 | 38 | 1036.0 |
| 20260831004731 | 78 | 337 | 0.0 | 0.0 | 0.00 | 0.36 | 0.00 | 39 | 1036.0 |
| 20260831004231 | 78 | 337 | 0.0 | 0.0 | 0.00 | 0.36 | 0.00 | 38 | 1035.9 |
| 20260831003734 | 78 | 337 | 0.0 | 0.0 | 0.00 | 0.36 | 0.00 | 36 | 1035.9 |
| 20260831003231 | 79 | 336 | 0.0 | 0.0 | 0.00 | 0.36 | 0.00 | 36 | 1035.9 |
| 20260831002731 | 79 | 335 | 0.0 | 0.0 | 0.00 | 0.36 | 0.00 | 36 | 1035.8 |
| 20260831002231 | 79 | 336 | 0.0 | 0.0 | 0.00 | 0.36 | 0.00 | 36 | 1035.7 |
| 20260831001734 | 79 | 336 | 0.0 | 0.0 | 0.00 | 0.36 | 0.00 | 35 | 1035.7 |
| 20260831001231 | 79 | 5 | 0.0 | 0.0 | 0.00 | 0.36 | 0.00 | 36 | 1035.6 |
| 20260831000731 | 79 | 5 | 0.0 | 0.0 | 0.00 | 0.36 | 0.00 | 36 | 1035.5 |
| 20260831000233 | 79 | 5 | 0.0 | 0.0 | 0.00 | 0.36 | 0.00 | 36 | 1035.4 |
| 20260830235731 | 79 | 5 | 0.0 | 0.0 | 0.00 | 0.36 | 0.00 | 37 | 1035.3 |
| 20260830235231 | 79 | 25 | 0.0 | 0.0 | 0.00 | 0.36 | 0.00 | 37 | 1035.2 |
| 20260830234731 | 79 | 277 | 0.0 | 0.0 | 0.00 | 0.36 | 0.00 | 36 | 1035.1 |
| 20260830234231 | 79 | 304 | 0.0 | 0.0 | 0.00 | 0.36 | 0.00 | 36 | 1035.0 |
| 20260830233734 | 80 | 27 | 0.0 | 0.0 | 0.00 | 0.36 | 0.00 | 36 | 1035.1 |
| 20260830233231 | 79 | 318 | 0.0 | 0.0 | 0.00 | 0.36 | 0.00 | 37 | 1035.0 |
| 20260830232734 | 79 | 352 | 0.0 | 0.0 | 0.00 | 0.36 | 0.00 | 37 | 1034.9 |
| 20260830232234 | 79 | 352 | 0.0 | 0.0 | 0.00 | 0.36 | 0.00 | 36 | 1035.0 |
| 20260830231734 | 79 | 94 | 0.0 | 0.0 | 0.00 | 0.36 | 0.00 | 38 | 1034.9 |
| 20260830231234 | 80 | 122 | 0.0 | 0.0 | 0.00 | 0.36 | 0.00 | 36 | 1034.9 |
| 20260830230734 | 79 | 87 | 0.0 | 0.0 | 0.00 | 0.36 | 0.00 | 37 | 1034.8 |
| 20260830230234 | 79 | 71 | 0.0 | 6.0 | 0.00 | 0.36 | 0.00 | 37 | 1034.8 |
| 20260830225734 | 80 | 108 | 0.0 | 0.0 | 0.00 | 0.36 | 0.00 | 36 | 1034.8 |
| 20260830225234 | 80 | 132 | 0.0 | 0.0 | 0.00 | 0.36 | 0.00 | 37 | 1034.7 |
| 20260830224734 | 79 | 122 | 0.0 | 0.0 | 0.00 | 0.36 | 0.00 | 39 | 1034.6 |
| 20260830224231 | 79 | 110 | 0.0 | 0.0 | 0.00 | 0.36 | 0.00 | 39 | 1034.6 |
| 20260830223731 | 78 | 94 | 0.0 | 0.0 | 0.00 | 0.36 | 0.00 | 43 | 1034.6 |
| 20260830223231 | 77 | 122 | 0.0 | 0.0 | 0.00 | 0.36 | 0.00 | 41 | 1034.6 |
| 20260830222731 | 77 | 84 | 0.0 | 0.0 | 0.00 | 0.36 | 0.00 | 43 | 1034.6 |
| 20260830222231 | 77 | 92 | 0.0 | 10.0 | 0.00 | 0.36 | 0.00 | 42 | 1034.6 |
| 20260830221734 | 77 | 65 | 3.0 | 8.0 | 0.00 | 0.36 | 0.00 | 42 | 1034.5 |
| 20260830221231 | 77 | 96 | 0.0 | 0.0 | 0.00 | 0.36 | 0.00 | 42 | 1034.4 |
| 20260830220734 | 77 | 188 | 0.0 | 7.0 | 0.00 | 0.36 | 0.00 | 41 | 1034.4 |
| 20260830220234 | 78 | 68 | 0.0 | 9.0 | 0.00 | 0.36 | 0.00 | 40 | 1034.4 |
| 20260830215734 | 79 | 165 | 0.0 | 8.0 | 0.00 | 0.36 | 0.00 | 40 | 1034.3 |
| 20260830215231 | 80 | 58 | 0.0 | 2.0 | 0.00 | 0.36 | 0.00 | 39 | 1034.3 |
| 20260830214731 | 79 | 117 | 0.0 | 10.0 | 0.00 | 0.36 | 0.00 | 41 | 1034.3 |
| 20260830214234 | 79 | 79 | 0.0 | 5.0 | 0.00 | 0.36 | 0.00 | 41 | 1034.3 |
| 20260830213731 | 79 | 43 | 0.0 | 10.0 | 0.00 | 0.36 | 0.00 | 40 | 1034.4 |
| 20260830213234 | 79 | 325 | 0.0 | 4.0 | 0.00 | 0.36 | 0.00 | 41 | 1034.3 |
| 20260830212731 | 78 | 75 | 1.0 | 2.0 | 0.00 | 0.36 | 0.00 | 42 | 1034.4 |
| 20260830212231 | 78 | 120 | 0.0 | 0.0 | 0.00 | 0.36 | 0.00 | 40 | 1034.4 |
| 20260830211731 | 79 | 79 | 0.0 | 7.0 | 0.00 | 0.36 | 0.00 | 40 | 1034.4 |
| 20260830211231 | 80 | 116 | 0.0 | 0.0 | 0.00 | 0.36 | 0.00 | 40 | 1034.4 |
| 20260830210731 | 80 | 98 | 0.0 | 0.0 | 0.00 | 0.36 | 0.00 | 39 | 1034.3 |
| 20260830210231 | 80 | 58 | 0.0 | 10.0 | 0.00 | 0.36 | 0.00 | 38 | 1034.2 |
| 20260830205734 | 80 | 69 | 0.0 | 1.0 | 0.00 | 0.36 | 0.00 | 41 | 1034.3 |
| 20260830205234 | 79 | 9 | 0.0 | 1.0 | 0.00 | 0.36 | 0.00 | 40 | 1034.3 |
| 20260830204734 | 79 | 70 | 0.0 | 0.0 | 0.00 | 0.36 | 0.00 | 41 | 1034.3 |
| 20260830204234 | 78 | 79 | 0.0 | 6.0 | 0.00 | 0.36 | 0.00 | 41 | 1034.4 |
| 20260830203731 | 77 | 67 | 0.0 | 8.0 | 0.00 | 0.36 | 0.00 | 44 | 1034.3 |
| 20260830203234 | 77 | 114 | 5.0 | 8.0 | 0.00 | 0.36 | 0.00 | 43 | 1034.4 |
| 20260830202731 | 77 | 13 | 0.0 | 7.0 | 0.00 | 0.36 | 0.00 | 42 | 1034.5 |
| 20260830202231 | 77 | 134 | 0.0 | 0.0 | 0.00 | 0.36 | 0.00 | 43 | 1034.5 |
| 20260830201734 | 76 | 142 | 0.0 | 1.0 | 0.00 | 0.36 | 0.00 | 45 | 1034.5 |
| 20260830201231 | 76 | 117 | 0.0 | 0.0 | 0.00 | 0.36 | 0.00 | 46 | 1034.5 |
| 20260830200734 | 76 | 80 | 0.0 | 10.0 | 0.00 | 0.36 | 0.00 | 46 | 1034.5 |
| 20260830200231 | 77 | 70 | 1.0 | 6.0 | 0.00 | 0.36 | 0.00 | 43 | 1034.4 |
| 20260830195734 | 78 | 212 | 0.0 | 3.0 | 0.00 | 0.36 | 0.00 | 44 | 1034.3 |
| 20260830195234 | 77 | 259 | 0.0 | 6.0 | 0.00 | 0.36 | 0.00 | 45 | 1034.2 |
| 20260830194734 | 78 | 117 | 0.0 | 13.0 | 0.00 | 0.36 | 0.00 | 44 | 1034.2 |
| 20260830194234 | 78 | 104 | 0.0 | 8.0 | 0.00 | 0.36 | 0.00 | 45 | 1034.2 |
| 20260830193734 | 78 | 356 | 0.0 | 5.0 | 0.00 | 0.36 | 0.00 | 43 | 1034.2 |
| 20260830193231 | 78 | 302 | 0.0 | 5.0 | 0.00 | 0.36 | 0.00 | 44 | 1034.2 |
| 20260830192734 | 77 | 82 | 0.0 | 12.0 | 0.00 | 0.36 | 0.00 | 46 | 1034.0 |
| 20260830192231 | 78 | 78 | 7.0 | 9.0 | 0.00 | 0.36 | 0.00 | 45 | 1033.9 |
| 20260830191731 | 78 | 134 | 3.0 | 9.0 | 0.00 | 0.36 | 0.00 | 44 | 1034.0 |
| 20260830191231 | 77 | 107 | 0.0 | 13.0 | 0.00 | 0.36 | 0.00 | 46 | 1033.9 |
| 20260830190734 | 78 | 44 | 7.0 | 7.0 | 0.00 | 0.36 | 0.00 | 46 | 1034.0 |
| 20260830190231 | 78 | 61 | 0.0 | 0.0 | 0.00 | 0.36 | 0.00 | 46 | 1033.9 |
| 20260830185731 | 77 | 43 | 0.0 | 0.0 | 0.00 | 0.36 | 0.00 | 44 | 1033.9 |
| 20260830185231 | 77 | 96 | 0.0 | 8.0 | 0.00 | 0.36 | 0.00 | 47 | 1034.0 |
| 20260830184731 | 77 | 84 | 0.0 | 5.0 | 0.00 | 0.36 | 0.00 | 47 | 1034.0 |
| 20260830184231 | 77 | 77 | 0.0 | 6.0 | 0.00 | 0.36 | 0.00 | 46 | 1034.0 |
| 20260830183731 | 77 | 142 | 0.0 | 7.0 | 0.00 | 0.36 | 0.00 | 46 | 1033.9 |
| 20260830183231 | 76 | 120 | 0.0 | 0.0 | 0.00 | 0.36 | 0.00 | 48 | 1033.9 |
| 20260830182731 | 77 | 109 | 0.0 | 0.0 | 0.00 | 0.36 | 0.00 | 48 | 1033.8 |
| 20260830182234 | 77 | 133 | 0.0 | 0.0 | 0.00 | 0.36 | 0.00 | 49 | 1033.9 |
| 20260830181734 | 75 | 64 | 0.0 | 0.0 | 0.00 | 0.36 | 0.00 | 52 | 1034.0 |
| 20260830181231 | 74 | 82 | 0.0 | 0.0 | 0.00 | 0.36 | 0.00 | 52 | 1034.0 |
| 20260830180734 | 74 | 78 | 0.0 | 0.0 | 0.00 | 0.36 | 0.00 | 51 | 1034.0 |
| 20260830180231 | 74 | 63 | 0.0 | 0.0 | 0.00 | 0.36 | 0.00 | 50 | 1034.2 |
| 20260830175731 | 75 | 79 | 0.0 | 0.0 | 0.00 | 0.36 | 0.00 | 49 | 1034.2 |
| 20260830175234 | 75 | 215 | 0.0 | 0.0 | 0.00 | 0.36 | 0.00 | 49 | 1034.3 |
| 20260830174734 | 75 | 142 | 0.0 | 0.0 | 0.00 | 0.36 | 0.00 | 50 | 1034.3 |
| 20260830174234 | 75 | 79 | 0.0 | 0.0 | 0.00 | 0.36 | 0.00 | 50 | 1034.3 |
| 20260830173731 | 76 | 108 | 0.0 | 1.0 | 0.00 | 0.36 | 0.00 | 49 | 1034.4 |
| 20260830173234 | 76 | 76 | 0.0 | 0.0 | 0.00 | 0.36 | 0.00 | 51 | 1034.3 |
| 20260830172731 | 76 | 204 | 0.0 | 0.0 | 0.00 | 0.36 | 0.00 | 51 | 1034.4 |
| 20260830172231 | 75 | 107 | 0.0 | 0.0 | 0.00 | 0.36 | 0.00 | 52 | 1034.5 |
| 20260830171734 | 76 | 166 | 0.0 | 0.0 | 0.00 | 0.36 | 0.00 | 49 | 1034.5 |
| 20260830171234 | 74 | 281 | 0.0 | 0.0 | 0.00 | 0.36 | 0.00 | 52 | 1034.5 |
| 20260830170734 | 74 | 104 | 0.0 | 0.0 | 0.00 | 0.36 | 0.00 | 52 | 1034.5 |
| 20260830170234 | 72 | 260 | 0.0 | 0.0 | 0.00 | 0.36 | 0.00 | 58 | 1034.5 |
| 20260830165731 | 73 | 259 | 0.0 | 0.0 | 0.00 | 0.36 | 0.00 | 56 | 1034.5 |
| 20260830165234 | 72 | 172 | 0.0 | 0.0 | 0.00 | 0.36 | 0.00 | 58 | 1034.6 |
| 20260830164734 | 71 | 172 | 0.0 | 0.0 | 0.00 | 0.36 | 0.00 | 57 | 1034.5 |
| 20260830164231 | 71 | 172 | 0.0 | 0.0 | 0.00 | 0.36 | 0.00 | 57 | 1034.5 |
| 20260830163731 | 70 | 163 | 0.0 | 0.0 | 0.00 | 0.36 | 0.00 | 59 | 1034.5 |
| 20260830163234 | 70 | 128 | 0.0 | 0.0 | 0.00 | 0.36 | 0.00 | 60 | 1034.5 |
| 20260830162734 | 69 | 139 | 0.0 | 0.0 | 0.00 | 0.36 | 0.00 | 60 | 1034.5 |
| 20260830162231 | 70 | 145 | 0.0 | 0.0 | 0.00 | 0.36 | 0.00 | 58 | 1034.5 |
| 20260830161734 | 70 | 153 | 0.0 | 0.0 | 0.00 | 0.36 | 0.00 | 58 | 1034.4 |
| 20260830161234 | 69 | 158 | 0.0 | 0.0 | 0.00 | 0.36 | 0.00 | 59 | 1034.3 |
| 20260830160734 | 68 | 79 | 0.0 | 0.0 | 0.00 | 0.36 | 0.00 | 60 | 1034.1 |
| 20260830160234 | 67 | 174 | 0.0 | 0.0 | 0.00 | 0.36 | 0.00 | 62 | 1034.1 |
| 20260830155734 | 66 | 174 | 0.0 | 0.0 | 0.00 | 0.36 | 0.00 | 67 | 1034.1 |
| 20260830155234 | 66 | 174 | 0.0 | 0.0 | 0.00 | 0.36 | 0.00 | 66 | 1034.0 |
| 20260830154734 | 66 | 174 | 0.0 | 0.0 | 0.00 | 0.36 | 0.00 | 66 | 1034.0 |
| 20260830154234 | 65 | 174 | 0.0 | 0.0 | 0.00 | 0.36 | 0.00 | 71 | 1034.0 |
| 20260830153731 | 64 | 174 | 0.0 | 0.0 | 0.00 | 0.36 | 0.00 | 73 | 1033.9 |
| 20260830153234 | 64 | 174 | 0.0 | 0.0 | 0.00 | 0.36 | 0.00 | 73 | 1033.7 |
| 20260830152734 | 64 | 175 | 0.0 | 0.0 | 0.00 | 0.36 | 0.00 | 72 | 1033.9 |
| 20260830152234 | 64 | 174 | 0.0 | 0.0 | 0.00 | 0.36 | 0.00 | 71 | 1033.7 |
| 20260830151731 | 64 | 30 | 0.0 | 0.0 | 0.00 | 0.36 | 0.00 | 70 | 1033.7 |
| 20260830151234 | 63 | 30 | 0.0 | 0.0 | 0.00 | 0.36 | 0.00 | 69 | 1033.6 |
| 20260830150734 | 63 | 30 | 0.0 | 0.0 | 0.00 | 0.36 | 0.00 | 70 | 1033.5 |
| 20260830150234 | 63 | 30 | 0.0 | 0.0 | 0.00 | 0.36 | 0.00 | 73 | 1033.7 |
| 20260830145731 | 63 | 30 | 0.0 | 0.0 | 0.00 | 0.36 | 0.00 | 72 | 1033.6 |
| 20260830145234 | 64 | 34 | 0.0 | 0.0 | 0.00 | 0.36 | 0.00 | 72 | 1033.6 |
| 20260830144734 | 64 | 163 | 0.0 | 0.0 | 0.00 | 0.36 | 0.00 | 69 | 1033.6 |
| 20260830144231 | 64 | 165 | 0.0 | 0.0 | 0.00 | 0.36 | 0.00 | 68 | 1033.6 |
| 20260830143731 | 64 | 165 | 0.0 | 0.0 | 0.00 | 0.36 | 0.00 | 71 | 1033.6 |
| 20260830143234 | 64 | 165 | 0.0 | 0.0 | 0.00 | 0.36 | 0.00 | 70 | 1033.7 |
| 20260830142731 | 63 | 165 | 0.0 | 0.0 | 0.00 | 0.36 | 0.00 | 70 | 1033.6 |
| 20260830142234 | 62 | 165 | 0.0 | 0.0 | 0.00 | 0.36 | 0.00 | 73 | 1033.6 |
| 20260830141734 | 61 | 164 | 0.0 | 0.0 | 0.00 | 0.36 | 0.00 | 75 | 1033.5 |
| 20260830141234 | 60 | 164 | 0.0 | 0.0 | 0.00 | 0.36 | 0.00 | 75 | 1033.6 |
| 20260830140734 | 60 | 163 | 0.0 | 0.0 | 0.00 | 0.36 | 0.00 | 76 | 1033.5 |
| 20260830140234 | 60 | 163 | 0.0 | 0.0 | 0.00 | 0.36 | 0.00 | 78 | 1033.4 |
| 20260830135734 | 59 | 163 | 0.0 | 0.0 | 0.00 | 0.36 | 0.00 | 77 | 1033.5 |
| 20260830135231 | 59 | 163 | 0.0 | 0.0 | 0.00 | 0.36 | 0.00 | 79 | 1033.6 |
| 20260830134731 | 59 | 164 | 0.0 | 0.0 | 0.00 | 0.36 | 0.00 | 79 | 1033.6 |
| 20260830134234 | 59 | 163 | 0.0 | 0.0 | 0.00 | 0.36 | 0.00 | 80 | 1033.5 |
| 20260830133731 | 59 | 163 | 0.0 | 0.0 | 0.00 | 0.36 | 0.00 | 80 | 1033.7 |
| 20260830133231 | 60 | 163 | 0.0 | 0.0 | 0.00 | 0.36 | 0.00 | 79 | 1033.6 |
| 20260830132734 | 60 | 164 | 0.0 | 0.0 | 0.00 | 0.36 | 0.00 | 78 | 1033.6 |
| 20260830132234 | 61 | 165 | 0.0 | 0.0 | 0.00 | 0.36 | 0.00 | 76 | 1033.7 |
| 20260830131734 | 61 | 164 | 0.0 | 0.0 | 0.00 | 0.36 | 0.00 | 76 | 1033.7 |
| 20260830131231 | 61 | 164 | 0.0 | 0.0 | 0.00 | 0.36 | 0.00 | 76 | 1033.7 |
| 20260830130731 | 61 | 165 | 0.0 | 0.0 | 0.00 | 0.36 | 0.00 | 78 | 1033.5 |
| 20260830130231 | 59 | 165 | 0.0 | 0.0 | 0.00 | 0.36 | 0.00 | 79 | 1033.5 |
| 20260830125734 | 59 | 163 | 0.0 | 0.0 | 0.00 | 0.36 | 0.00 | 80 | 1033.5 |
| 20260830125234 | 59 | 163 | 0.0 | 0.0 | 0.00 | 0.36 | 0.00 | 79 | 1033.5 |
| 20260830124734 | 59 | 164 | 0.0 | 0.0 | 0.00 | 0.36 | 0.00 | 79 | 1033.7 |
| 20260830124231 | 59 | 163 | 0.0 | 0.0 | 0.00 | 0.36 | 0.00 | 77 | 1033.7 |
| 20260830123731 | 59 | 165 | 0.0 | 0.0 | 0.00 | 0.36 | 0.00 | 76 | 1033.7 |
| 20260830123234 | 60 | 179 | 0.0 | 0.0 | 0.00 | 0.36 | 0.00 | 74 | 1033.6 |
| 20260830122734 | 60 | 246 | 0.0 | 0.0 | 0.00 | 0.36 | 0.00 | 72 | 1033.5 |
| 20260830122231 | 60 | 246 | 0.0 | 0.0 | 0.00 | 0.36 | 0.00 | 71 | 1033.5 |
| 20260830121731 | 60 | 246 | 0.0 | 0.0 | 0.00 | 0.36 | 0.00 | 69 | 1033.6 |
| 20260830121234 | 61 | 246 | 0.0 | 0.0 | 0.00 | 0.36 | 0.00 | 68 | 1033.6 |
| 20260830120734 | 61 | 246 | 0.0 | 0.0 | 0.00 | 0.36 | 0.00 | 68 | 1033.5 |
| 20260830120231 | 61 | 246 | 0.0 | 0.0 | 0.00 | 0.36 | 0.00 | 69 | 1033.5 |
| 20260830115734 | 61 | 246 | 0.0 | 0.0 | 0.00 | 0.36 | 0.00 | 69 | 1033.6 |
| 20260830115231 | 61 | 246 | 0.0 | 0.0 | 0.00 | 0.36 | 0.00 | 70 | 1033.7 |
| 20260830114734 | 61 | 246 | 0.0 | 0.0 | 0.00 | 0.36 | 0.00 | 70 | 1033.8 |
| 20260830114231 | 61 | 246 | 0.0 | 0.0 | 0.00 | 0.36 | 0.00 | 70 | 1033.8 |
| 20260830113731 | 60 | 246 | 0.0 | 0.0 | 0.00 | 0.36 | 0.00 | 70 | 1033.8 |
| 20260830113231 | 60 | 246 | 0.0 | 0.0 | 0.00 | 0.36 | 0.00 | 72 | 1034.0 |
| 20260830112734 | 60 | 246 | 0.0 | 0.0 | 0.00 | 0.36 | 0.00 | 72 | 1034.1 |
| 20260830112231 | 61 | 246 | 0.0 | 0.0 | 0.00 | 0.36 | 0.00 | 72 | 1034.2 |
| 20260830111731 | 61 | 246 | 0.0 | 0.0 | 0.00 | 0.36 | 0.00 | 71 | 1034.2 |
| 20260830111234 | 61 | 247 | 0.0 | 0.0 | 0.00 | 0.36 | 0.00 | 71 | 1034.1 |
| 20260830110731 | 60 | 246 | 0.0 | 0.0 | 0.00 | 0.36 | 0.00 | 71 | 1034.3 |
| 20260830110234 | 60 | 246 | 0.0 | 0.0 | 0.00 | 0.36 | 0.00 | 72 | 1034.5 |
| 20260830105731 | 60 | 246 | 0.0 | 0.0 | 0.00 | 0.36 | 0.00 | 75 | 1034.6 |
| 20260830105231 | 60 | 246 | 0.0 | 0.0 | 0.00 | 0.36 | 0.00 | 73 | 1034.6 |
| 20260830104734 | 60 | 246 | 0.0 | 0.0 | 0.00 | 0.36 | 0.00 | 72 | 1034.6 |
| 20260830104234 | 60 | 246 | 0.0 | 0.0 | 0.00 | 0.36 | 0.00 | 72 | 1034.7 |
| 20260830103731 | 60 | 246 | 0.0 | 0.0 | 0.00 | 0.36 | 0.00 | 73 | 1034.7 |
| 20260830103231 | 60 | 246 | 0.0 | 0.0 | 0.00 | 0.36 | 0.00 | 72 | 1034.8 |
| 20260830102734 | 60 | 246 | 0.0 | 0.0 | 0.00 | 0.36 | 0.00 | 73 | 1035.0 |
| 20260830102234 | 60 | 246 | 0.0 | 0.0 | 0.00 | 0.36 | 0.00 | 74 | 1035.1 |
| 20260830101734 | 60 | 339 | 0.0 | 0.0 | 0.00 | 0.36 | 0.00 | 74 | 1035.1 |
| 20260830101234 | 60 | 339 | 0.0 | 0.0 | 0.00 | 0.36 | 0.00 | 74 | 1035.2 |
| 20260830100734 | 60 | 339 | 0.0 | 0.0 | 0.00 | 0.36 | 0.00 | 74 | 1035.2 |
| 20260830100234 | 60 | 300 | 0.0 | 0.0 | 0.00 | 0.36 | 0.00 | 76 | 1035.3 |
| 20260830095734 | 60 | 304 | 0.0 | 0.0 | 0.00 | 0.36 | 0.00 | 76 | 1035.5 |
| 20260830095234 | 60 | 322 | 0.0 | 0.0 | 0.00 | 0.36 | 0.00 | 75 | 1035.5 |
| 20260830094731 | 60 | 322 | 0.0 | 0.0 | 0.00 | 0.36 | 0.00 | 75 | 1035.5 |
| 20260830094231 | 60 | 46 | 0.0 | 0.0 | 0.00 | 0.36 | 0.00 | 75 | 1035.6 |
| 20260830093734 | 60 | 50 | 0.0 | 0.0 | 0.00 | 0.36 | 0.00 | 76 | 1035.7 |
| 20260830093231 | 60 | 73 | 0.0 | 0.0 | 0.00 | 0.36 | 0.00 | 78 | 1035.7 |
| 20260830092731 | 59 | 28 | 0.0 | 0.0 | 0.00 | 0.36 | 0.00 | 81 | 1035.5 |